Change the Weather History Date:

Sunday, October 14, 2012

  Actual Average Record
Temperature  
Mean Temperature 18 °F -  
Max Temperature 21 °F 22 °F 44 °F (2013)
Min Temperature 15 °F 11 °F 1 °F (2010)
Degree Days  
Heating Degree Days 47    
Moisture  
Dew Point 13 °F    
Average Humidity 76    
Maximum Humidity 93    
Minimum Humidity 54    
Precipitation  
Precipitation 0.00 in - - ()
Sea Level Pressure  
Sea Level Pressure 29.34 in    
Wind  
Wind Speed 6 mph (NE)    
Max Wind Speed 9 mph    
Max Gust Speed -    
Visibility 8 miles    
Events      
Averages and records for this station are not official NWS values.
T = Trace of Precipitation, MM = Missing Value Source: NWS Daily Summary

Daily Weather History Graph

Daily Weather History Graph

Search for Another Location

Airport or City:

Trip Planner

Search our weather history database for the weather conditions in past years. The results will help you decide how hot, cold, wet, or windy it might be!

Date:

Astronomy

Oct. 14, 2012 Rise Set
Actual Time 8:38 AM AKDT 6:13 PM AKDT
Civil Twilight 7:44 AM AKDT 7:07 PM AKDT
Nautical Twilight 6:44 AM AKDT 8:07 PM AKDT
Astronomical Twilight 5:41 AM AKDT 9:09 PM AKDT
Moon 7:48 AM AKDT (10/14) 5:28 PM AKDT (10/14)
Length of Visible Light 11h 22m
Length of Day
9h 35m
Waning Crescent, 1% of the Moon is Illuminated
Oct 14
Waning Crescent
Oct 15
New
Oct 21
First Quarter
Oct 29
Full
Nov 6
Last Quarter

Hourly Weather History & Observations

Time (AKDT) Temp. Windchill Dew Point Humidity Pressure Visibility Wind Dir Wind Speed Gust Speed Precip Events Conditions
12:16 AM 15.8 °F 7.2 °F 8.6 °F 73% 29.50 in 10.0 mi ENE 5.8 mph - N/A   Clear
12:36 AM 17.6 °F 10.7 °F 8.6 °F 68% 29.50 in 10.0 mi NE 4.6 mph - N/A   Clear
12:56 AM 15.8 °F 8.6 °F 8.6 °F 73% 29.49 in 10.0 mi NE 4.6 mph - N/A   Clear
1:16 AM 15.8 °F 8.6 °F 8.6 °F 73% 29.49 in 10.0 mi NE 4.6 mph - N/A   Clear
1:36 AM 15.8 °F 6.1 °F 8.6 °F 73% 29.48 in 10.0 mi NE 6.9 mph - N/A   Clear
1:56 AM 15.8 °F 6.1 °F 8.6 °F 73% 29.47 in 10.0 mi NE 6.9 mph - N/A   Clear
2:16 AM 17.6 °F 8.2 °F 8.6 °F 68% 29.47 in 10.0 mi NE 6.9 mph - N/A   Clear
2:36 AM 17.6 °F 8.2 °F 8.6 °F 68% 29.46 in 10.0 mi NE 6.9 mph - N/A   Partly Cloudy
2:56 AM 17.6 °F 8.2 °F 8.6 °F 68% 29.46 in 10.0 mi NE 6.9 mph - N/A   Partly Cloudy
3:16 AM 17.6 °F 8.2 °F 8.6 °F 68% 29.45 in 10.0 mi NE 6.9 mph - N/A   Clear
3:36 AM 17.6 °F 7.3 °F 8.6 °F 68% 29.45 in 10.0 mi NE 8.1 mph - N/A   Clear
3:56 AM 17.6 °F 8.2 °F 8.6 °F 68% 29.44 in 10.0 mi NE 6.9 mph - N/A   Mostly Cloudy
4:16 AM 17.6 °F 8.2 °F 8.6 °F 68% 29.43 in 10.0 mi NE 6.9 mph - N/A   Overcast
4:36 AM 17.6 °F 7.3 °F 8.6 °F 68% 29.43 in 10.0 mi NE 8.1 mph - N/A   Overcast
4:56 AM 17.6 °F 8.2 °F 10.4 °F 73% 29.42 in 10.0 mi NE 6.9 mph - N/A   Overcast
5:16 AM 17.6 °F 8.2 °F 10.4 °F 73% 29.42 in 10.0 mi NE 6.9 mph - N/A   Overcast
5:36 AM 17.6 °F 8.2 °F 10.4 °F 73% 29.41 in 10.0 mi NE 6.9 mph - N/A   Overcast
5:56 AM 17.6 °F 9.3 °F 10.4 °F 73% 29.40 in 10.0 mi NE 5.8 mph - N/A   Overcast
6:16 AM 19.4 °F 11.5 °F 10.4 °F 68% 29.40 in 10.0 mi ENE 5.8 mph - N/A   Overcast
6:36 AM 19.4 °F 11.5 °F 10.4 °F 68% 29.39 in 10.0 mi ENE 5.8 mph - N/A   Overcast
6:56 AM 19.4 °F 9.5 °F 10.4 °F 68% 29.39 in 10.0 mi ENE 8.1 mph - N/A   Overcast
7:16 AM 17.6 °F 9.3 °F 10.4 °F 73% 29.38 in 9.0 mi ENE 5.8 mph - N/A   Overcast
7:36 AM 17.6 °F 8.2 °F 12.2 °F 79% 29.38 in 10.0 mi ENE 6.9 mph - N/A   Overcast
7:56 AM 17.6 °F 8.2 °F 12.2 °F 79% 29.37 in 10.0 mi ENE 6.9 mph - N/A   Overcast
8:16 AM 19.4 °F 9.5 °F 10.4 °F 68% 29.36 in 10.0 mi NE 8.1 mph - N/A   Overcast
8:36 AM 19.4 °F 10.4 °F 10.4 °F 68% 29.36 in 10.0 mi NE 6.9 mph - N/A   Overcast
8:56 AM 19.4 °F 10.4 °F 10.4 °F 68% 29.35 in 10.0 mi NE 6.9 mph - N/A   Overcast
9:16 AM 19.4 °F 10.4 °F 10.4 °F 68% 29.35 in 10.0 mi NNE 6.9 mph - N/A   Overcast
9:36 AM 19.4 °F 11.5 °F 10.4 °F 68% 29.34 in 10.0 mi NE 5.8 mph - N/A   Overcast
9:56 AM 19.4 °F 8.6 °F 10.4 °F 68% 29.34 in 10.0 mi NE 9.2 mph - N/A   Overcast
10:16 AM 19.4 °F 9.5 °F 10.4 °F 68% 29.34 in 10.0 mi NE 8.1 mph - N/A   Overcast
10:36 AM 19.4 °F 9.5 °F 10.4 °F 68% 29.34 in 10.0 mi NE 8.1 mph - N/A   Overcast
10:56 AM 21.2 °F 11.7 °F 10.4 °F 63% 29.33 in 10.0 mi NE 8.1 mph - N/A   Overcast
11:16 AM 21.2 °F 12.6 °F 10.4 °F 63% 29.33 in 10.0 mi NE 6.9 mph - N/A   Overcast
11:36 AM 21.2 °F 12.6 °F 12.2 °F 68% 29.32 in 10.0 mi ENE 6.9 mph - N/A   Overcast
11:56 AM 21.2 °F 10.9 °F 10.4 °F 63% 29.32 in 10.0 mi NE 9.2 mph - N/A   Overcast
12:16 PM 21.2 °F 10.9 °F 12.2 °F 68% 29.32 in 10.0 mi NE 9.2 mph - N/A   Overcast
12:36 PM 21.2 °F 11.7 °F 12.2 °F 68% 29.31 in 10.0 mi NE 8.1 mph - N/A   Overcast
12:56 PM 21.2 °F 12.6 °F 12.2 °F 68% 29.31 in 10.0 mi ENE 6.9 mph - N/A   Overcast
1:16 PM 21.2 °F 13.6 °F 12.2 °F 68% 29.30 in 10.0 mi NNE 5.8 mph - N/A   Overcast
1:36 PM 21.2 °F 12.6 °F 14.0 °F 74% 29.31 in 7.0 mi ENE 6.9 mph - N/A   Overcast
1:56 PM 21.2 °F 12.6 °F 12.2 °F 68% 29.30 in 7.0 mi NE 6.9 mph - N/A   Overcast
2:16 PM 21.2 °F 13.6 °F 15.8 °F 80% 29.30 in 5.0 mi ENE 5.8 mph - N/A   Mostly Cloudy
2:36 PM 21.2 °F 13.6 °F 15.8 °F 80% 29.29 in 3.0 mi NNE 5.8 mph - N/A   Mostly Cloudy
2:56 PM 21.2 °F 12.6 °F 15.8 °F 80% 29.29 in 3.0 mi ENE 6.9 mph - N/A   Overcast
3:16 PM 21.2 °F 12.6 °F 17.6 °F 86% 29.29 in 3.0 mi NNE 6.9 mph - N/A   Overcast
3:36 PM 21.2 °F 14.9 °F 17.6 °F 86% 29.29 in 3.0 mi NNE 4.6 mph - N/A   Overcast
3:56 PM 21.2 °F 12.6 °F 17.6 °F 86% 29.29 in 5.0 mi NNE 6.9 mph - N/A   Overcast
4:16 PM 21.2 °F 13.6 °F 17.6 °F 86% 29.28 in 5.0 mi NNE 5.8 mph - N/A   Overcast
4:36 PM 21.2 °F 13.6 °F 17.6 °F 86% 29.28 in 5.0 mi NNE 5.8 mph - N/A   Overcast
4:56 PM 21.2 °F 14.9 °F 17.6 °F 86% 29.28 in 4.0 mi NNE 4.6 mph - N/A   Overcast
5:16 PM 21.2 °F 14.9 °F 17.6 °F 86% 29.28 in 5.0 mi NNE 4.6 mph - N/A   Overcast
5:36 PM 21.2 °F 14.9 °F 17.6 °F 86% 29.27 in 5.0 mi NNE 4.6 mph - N/A   Overcast
5:56 PM 21.2 °F 16.4 °F 17.6 °F 86% 29.27 in 3.0 mi NNE 3.5 mph - N/A   Overcast
6:16 PM 21.2 °F 16.4 °F 19.4 °F 93% 29.27 in 1.0 mi NE 3.5 mph - N/A   Overcast
6:36 PM 21.2 °F 14.9 °F 19.4 °F 93% 29.27 in 1.0 mi North 4.6 mph - N/A   Overcast
6:56 PM 21.2 °F 16.4 °F 19.4 °F 93% 29.27 in 1.0 mi North 3.5 mph - N/A   Overcast
7:16 PM 21.2 °F 16.4 °F 19.4 °F 93% 29.27 in 6.0 mi North 3.5 mph - N/A   Overcast
7:36 PM 21.2 °F 16.4 °F 17.6 °F 86% 29.27 in 5.0 mi North 3.5 mph - N/A   Overcast
7:56 PM 21.2 °F 16.4 °F 19.4 °F 93% 29.26 in 7.0 mi North 3.5 mph - N/A   Overcast
8:16 PM 21.2 °F 16.4 °F 17.6 °F 86% 29.26 in 5.0 mi North 3.5 mph - N/A   Overcast
8:36 PM 21.2 °F 16.4 °F 17.6 °F 86% 29.26 in 5.0 mi North 3.5 mph - N/A   Mostly Cloudy
8:56 PM 21.2 °F 16.4 °F 19.4 °F 93% 29.27 in 10.0 mi North 3.5 mph - N/A   Overcast
9:16 PM 21.2 °F 14.9 °F 19.4 °F 93% 29.27 in 10.0 mi NNE 4.6 mph - N/A   Overcast
9:36 PM 21.2 °F 14.9 °F 19.4 °F 93% 29.27 in 10.0 mi NNE 4.6 mph - N/A   Overcast
9:56 PM 21.2 °F 16.4 °F 17.6 °F 86% 29.27 in 10.0 mi NNE 3.5 mph - N/A   Overcast
10:16 PM 21.2 °F 13.6 °F 17.6 °F 86% 29.26 in 10.0 mi NNE 5.8 mph - N/A   Overcast
10:36 PM 21.2 °F 13.6 °F 17.6 °F 86% 29.26 in 10.0 mi NNE 5.8 mph - N/A   Overcast
10:56 PM 21.2 °F 13.6 °F 17.6 °F 86% 29.26 in 10.0 mi NE 5.8 mph - N/A   Overcast
11:16 PM 21.2 °F 12.6 °F 17.6 °F 86% 29.26 in 10.0 mi NE 6.9 mph - N/A   Overcast
11:36 PM 21.2 °F 13.6 °F 17.6 °F 86% 29.27 in 10.0 mi NE 5.8 mph - N/A   Overcast
11:56 PM 21.2 °F 14.9 °F 17.6 °F 86% 29.27 in 10.0 mi NNE 4.6 mph - N/A   Overcast